Home   Weather   Hamamatsu   Past weeks

Flag for Japan Past Weather in Hamamatsu, Japan — Yesterday and Last 2 Weeks

Now
68 °F

Mild.


Feels Like: 68 °F
Forecast: 60 / 78 °F
Wind: 22 mph from West

Location: Omaezaki

Current Time: May 27, 2017 at 8:45:51 pm

Latest Report: May 27, 2017 at 7:00 pm


Visibility: 13 mi

Pressure: 29.75 "Hg

Humidity: 60%

Dew Point: 54 °F

Location of HamamatsuLocation

Past Weather in Hamamatsu — Graph

°F

Hamamatsu Temperature Yesterday

Maximum temperature yesterday: 69 °F (at 4:00 pm)
Minimum temperature yesterday: 64 °F (at 6:00 am)
Average temperature yesterday: 67 °F

High & Low Weather Summary for the Past Weeks

 TemperatureHumidityPressure
High75 °F (May 22, 1:00 pm)100% (May 13, 12:00 pm)30.07 "Hg (May 13, 12:00 pm)
Low58 °F (May 18, 4:00 am)51% (May 27, 12:00 pm)29.61 "Hg (May 26, 9:00 am)
Average67 °F85%29.86 "Hg
* Reported May 12 7:00 pm — May 27 7:00 pm, Hamamatsu. Weather by CustomWeather, © 2017

Note: Actual official high and low records may vary slightly from our data, if they occured in-between our weather recording intervals... More about our weather records

Advertising

Hamamatsu Weather History for the Previous 24 Hours

Scroll right to see more
 ConditionsComfort  
Time TempWeatherWind HumidityBarometerVisibility
7:00 pm
Sat, May 27
68 °FMild.22 mph60%29.75 "Hg12 mi
6:00 pm70 °FMild.22 mph58%29.73 "Hg12 mi
5:00 pm71 °FMild.21 mph61%29.73 "Hg12 mi
4:00 pm72 °FMild.23 mph58%29.73 "Hg12 mi
3:00 pm71 °FMild.20 mph64%29.74 "Hg12 mi
2:00 pm72 °FMild.21 mph56%29.76 "Hg12 mi
1:00 pm73 °FMild.21 mph54%29.76 "Hg12 mi
12:00 pm74 °FMild.20 mph51%29.76 "Hg12 mi
11:00 am73 °FMild.15 mph54%29.76 "Hg12 mi
10:00 am73 °FMild.15 mph55%29.76 "Hg12 mi
9:00 am69 °FMild.17 mph65%29.76 "Hg12 mi
8:00 am69 °FMild.14 mph68%29.76 "Hg12 mi
7:00 am67 °FMild.12 mph70%29.75 "Hg12 mi
6:00 am63 °FMild.12 mph81%29.73 "Hg12 mi
5:00 am62 °FCool.9 mph88%29.70 "Hg10 mi
4:00 am63 °FMild.10 mph93%29.69 "Hg8 mi
3:00 am64 °FMild.12 mph94%29.68 "Hg9 mi
2:00 am65 °FMild.12 mph94%29.68 "Hg12 mi
1:00 am67 °FFog.10 mph95%29.68 "Hg6 mi
12:00 am67 °FMild.5 mph98%29.69 "Hg7 mi
11:00 pm
Fri, May 26
67 °FMild.6 mph96%29.70 "Hg7 mi
10:00 pm67 °FMild.5 mph96%29.70 "Hg7 mi
9:00 pm67 °FMild.6 mph94%29.70 "Hg11 mi
8:00 pm67 °FMild.7 mph95%29.67 "Hg12 mi
Weather by CustomWeather, © 2017

See weather overviewHow to use our weather pages